Montevideo, Uruguay

10:07 PM -03 en Octubre 20, 2017 (GMT -0300)
Carrasco International-Gen C L Berisso

Tiempo Historia de SUMU - Agosto, 2017

Change the Weather History Date:

Domingo, Agosto 13, 2017

  Actual Average Record
Temperature  
Temperatura media 52 ° F -  
Temperatura máxima 57 ° F 59 ° F 77 ° F (2004)
Temperatura mínima 46 ° F 43 ° F 35 ° F (2008)
Degree Days  
Grados día de calefacción 14    
Growing Degree Days 2 (Base 50)    
Moisture  
Punto de rocío 46 ° F    
Average Humidity 75    
Maximum Humidity 88    
Minimum Humidity 57    
Precipitación  
Precipitación 0.00 pul 0.12 pul - ()
Presión al nivel del mar  
Presión al nivel del mar 29.92 pul    
Viento  
Velocidad del viento 8 mph ()    
Velocidad máxima del viento 14 mph    
Max Gust Speed -    
Visibilidad 7.3 Millas    
Eventos Lluvia    
Averages and records for this station are not official NWS values.
T = Trace of Precipitation, MM = Missing Value Source: Averaged Metar Reports

Daily Weather History Graph

Daily Weather History Graph

Search for Another Location

Airport or City:

Trip Planner

Search our weather history database for the weather conditions in past years. The results will help you decide how hot, cold, wet, or windy it might be!

Date:

Astronomía

Aug. 13, 2017 Salida Puesta
Hora real 7:26 AM -03 6:11 PM -03
Crepúsculo civil 7:00 AM -03 6:37 PM -03
Crepúsculo náutico 6:30 AM -03 7:07 PM -03
Crepúsculo astronómico 6:00 AM -03 7:37 PM -03
Luna Sin salida de luna 10:59 AM -03 (8/13)
Horas de luz 11h 37m
Horas de luz
10h 45m
Gibosa menguante, 66% of the Moon is Illuminated
Ago 13
Gibosa menguante
Ago 14
Cuarto menguante
Ago 21
Nueva
Ago 29
Cuarto creciente
Sep 6
Luna llena

Hourly Weather History & Observations

Hora (-03) Temp. Vientos helados Punto de rocío Humedad Presión Visibilidad Wind Dir Velocidad del viento Velocidad de ráfagas Precip Eventos Condiciones
12:00 AM 54 ° F - 51 ° F 86% 29.90 pul 7 mi SO 12.7 mph - - Lluvia Llovizna débil
12:00 AM 55.4 ° F - 51.8 ° F 88% 29.89 pul 6.2 mi SO 12.7 mph - N/A   Nublado
1:00 AM 55.4 ° F - 50.0 ° F 82% 29.95 pul 6.2 mi SO 10.4 mph - N/A   Nublado
2:00 AM 53.6 ° F - 48.2 ° F 82% 29.92 pul 6.2 mi SO 11.5 mph - N/A   Muy nublado
3:00 AM 54 ° F - 47 ° F 70% 29.95 pul 7 mi SO 9.2 mph - -   Parcialmente nublado
3:00 AM 53.6 ° F - 46.4 ° F 77% 29.95 pul 6.2 mi SO 9.2 mph - N/A   Muy nublado
4:00 AM 53.6 ° F - 48.2 ° F 82% 29.95 pul 6.2 mi SO 10.4 mph - N/A   Muy nublado
5:00 AM 51.8 ° F - 48.2 ° F 88% 29.92 pul 6.2 mi SO 10.4 mph - N/A   Parcialmente nublado
6:00 AM 52 ° F - 47 ° F 78% 29.95 pul 7 mi SO 8.1 mph - -   Nubes dispersas
6:00 AM 51.8 ° F - 46.4 ° F 82% 29.95 pul 6.2 mi SO 8.1 mph - N/A   Parcialmente nublado
7:00 AM 50.0 ° F - 46.4 ° F 87% 29.95 pul - SO 5.8 mph - N/A   Despejado
8:00 AM 51.8 ° F - 44.6 ° F 76% 29.98 pul - SSO 6.9 mph - N/A   Despejado
9:00 AM 54 ° F - 46 ° F 68% 29.99 pul 9 mi SSO 13.8 mph - -   Despejado
9:00 AM 53.6 ° F - 46.4 ° F 77% 29.98 pul - SSO 13.8 mph - N/A   Despejado
10:00 AM 55.4 ° F - 46.4 ° F 72% 29.95 pul - SSO 13.8 mph - N/A   Despejado
11:00 AM 57.2 ° F - 46.4 ° F 67% 29.95 pul - SSO 13.8 mph - N/A   Despejado
12:00 PM 56 ° F - 47 ° F 62% 29.96 pul 12 mi Sur 9.2 mph - -   Despejado
12:00 PM 57.2 ° F - 46.4 ° F 67% 29.95 pul - Sur 9.2 mph - N/A   Despejado
1:00 PM 57.2 ° F - 46.4 ° F 67% 29.92 pul - Sur 8.1 mph - N/A   Despejado
2:00 PM 57.2 ° F - 44.6 ° F 63% 29.89 pul - Sur 5.8 mph - N/A   Despejado
3:00 PM 56 ° F - 45 ° F 57% 29.91 pul 12 mi Sur 3.5 mph - -   Despejado
3:00 PM 55.4 ° F - 44.6 ° F 67% 29.89 pul - Sur 3.5 mph - N/A   Despejado
4:00 PM 57.2 ° F - 44.6 ° F 63% 29.89 pul - SSO 4.6 mph - N/A   Despejado
5:00 PM 55.4 ° F - 46.4 ° F 72% 29.86 pul - Sur 5.8 mph - N/A   Despejado
6:00 PM 53 ° F - 44 ° F 61% 29.90 pul 9 mi SO 3.5 mph - -   Despejado
6:00 PM 53.6 ° F - 44.6 ° F 72% 29.89 pul - SO 3.5 mph - N/A   Despejado
7:00 PM 50.0 ° F - 46.4 ° F 87% 29.89 pul - Oeste 3.5 mph - N/A   Despejado
8:00 PM 50.0 ° F - 42.8 ° F 76% 29.89 pul - OSO 3.5 mph - N/A   Despejado
9:00 PM 49 ° F - 45 ° F 80% 29.91 pul 6 mi Sin viento Sin viento - -   Muy nublado
9:00 PM 50.0 ° F - 42.8 ° F 76% 29.89 pul - Sin viento Sin viento - N/A   Despejado
10:00 PM 46.4 ° F 44.3 ° F 42.8 ° F 87% 29.89 pul - Norte 4.6 mph - N/A   Despejado
11:00 PM 46.4 ° F - 42.8 ° F 87% 29.89 pul 3.7 mi Sin viento Sin viento - N/A   Desconocido